Flag for U.S.A. Weather past 2 weeks in Panama City, Florida, U.S.A.

Now
84 °F

Sunny.


Feels Like: 92 °F
Forecast: 73 / 88 °F
Wind: 3 mph from East

Location: Tyndall Air Force Base

Current Time: Sep 18, 2014 at 1:04:15 PM

Latest Report: Sep 18, 2014 at 9:58 AM


Visibility: 10 mi

Pressure: 29.96 "Hg

Humidity: 77%

Dew point: 76 °F

Location of Panama CityLocation

Historic Weather in Panama City — Graph

°F

Panama City temperature yesterday

Maximum temperature yesterday: 86 °F (at 2:58 PM)
Minimum temperature yesterday: 72 °F (at 4:58 AM)
Average temperature yesterday: 78 °F

Past Weeks' High & Low Weather Summary

 TemperatureHumidityPressure
High92 °F (Sep 13, 12:58 PM)100% (Sep 4, 10:58 PM)30.15 "Hg (Sep 4, 10:58 PM)
Low72 °F (Sep 18, 5:03 AM)62% (Sep 12, 11:58 AM)29.88 "Hg (Sep 17, 4:58 PM)
Average80 °F88%30.03 "Hg
* Reported Sep 3 9:58 AM — Sep 18 9:58 AM, Panama City, Weather by CustomWeather, © 2014

Note: Actual official high and low records may vary slightly from our data, if they occured in-between our weather recording intervals... More about our weather records

Advertising

Panama City weather history for previous 24 hours

 ConditionsComfort  
Time TempWeatherWind HumidityBarometerVisibility
9:58 AM
Sep 18
84 °FSunny.3 mph77%29.96 "Hg10 mi
8:58 AM81 °FSunny.6 mph81%29.95 "Hg10 mi
7:58 AM77 °FSunny.6 mph92%29.94 "Hg10 mi
6:58 AM75 °FSunny.7 mph99%29.93 "Hg10 mi
5:58 AM75 °FClear.6 mph100%29.91 "Hg10 mi
5:03 AM72 °FFog.No wind100%29.89 "Hg6 mi
4:58 AM72 °FClear.No wind100%29.90 "Hg7 mi
3:58 AM72 °FClear.No wind100%29.89 "Hg10 mi
2:58 AM72 °FClear.2 mph99%29.90 "Hg10 mi
1:58 AM72 °FClear.1 mph99%29.90 "Hg10 mi
12:58 AM72 °FClear.1 mph98%29.91 "Hg10 mi
11:58 PM
Sep 17
73 °FClear.3 mph94%29.93 "Hg10 mi
10:58 PM75 °FClear.No wind90%29.93 "Hg10 mi
9:58 PM77 °FClear.5 mph83%29.95 "Hg10 mi
8:58 PM78 °FClear.6 mph87%29.94 "Hg10 mi
7:58 PM78 °FClear.No wind90%29.93 "Hg10 mi
6:58 PM81 °FClear.6 mph82%29.90 "Hg10 mi
5:58 PM84 °FSunny.8 mph78%29.88 "Hg10 mi
4:58 PM85 °FSunny.9 mph74%29.88 "Hg10 mi
3:58 PM86 °FSunny.8 mph74%29.90 "Hg10 mi
2:58 PM86 °FSunny.9 mph74%29.91 "Hg10 mi
1:58 PM85 °FPassing clouds.7 mph78%29.93 "Hg10 mi
Weather by CustomWeather, © 2014

See weather overviewHow to use our weather pages